Wetbulb
31.18 31.66 33.27 33.52 34.00 34.60 35.40 37.08 38.71 39.70 40.37 41.87 43.24 44.23 44.61 43.94 43.83 45.90 48.05 49.13 49.56 50.25
30.41 31.08 31.53 31.89 32.46 33.31 34.29 36.52 36.98 37.99 38.44 40.12 41.08 43.59 44.42 44.23 44.15 44.91 47.43 49.90 50.93 53.65
30.02 30.52 31.13 31.00 30.24 31.27 32.80 35.20 35.98 36.38 36.52 37.50 40.09 42.01 44.53 43.94 45.47 46.11 47.43 48.35 51.07 51.16
28.18 28.66 28.85 28.80 29.39 30.09 31.85 33.76 34.70 35.18 34.96 35.17 36.96 39.51 41.82 44.81 45.83 46.41 48.03 50.03 50.27 52.51
26.51 26.99 26.94 27.11 28.13 29.54 30.12 32.32 32.47 33.92 33.46 33.49 34.13 35.45 36.74 37.19 38.32 39.04 38.99 39.48 39.61 40.27
24.07 24.38 25.04 25.65 27.31 28.62 28.96 30.11 30.88 31.59 31.71 31.39 31.96 32.54 33.35 33.73 33.97 33.86 34.71 34.87 36.59 35.17
22.74 23.43 24.12 25.28 26.50 27.38 28.54 27.78 28.93 29.68 30.87 30.74 30.12 30.21 30.92 30.96 31.24 31.59 31.85 32.70 33.23 34.28
22.61 23.34 23.99 24.73 25.16 25.94 26.70 26.67 27.52 27.96 28.14 29.97 30.15 29.66 28.52 29.18 28.78 28.67 29.07 30.01 30.70 32.14
21.87 21.97 22.79 23.41 24.00 24.10 24.58 25.43 24.71 26.22 26.78 26.79 28.38 28.67 28.43 27.73 27.13 27.17 26.71 26.67 28.33 29.34
20.76 20.44 20.96 22.29 22.27 22.35 22.75 23.27 23.48 23.35 25.29 25.22 26.01 26.97 26.97 25.95 25.20 25.70 26.90 26.42 26.23 26.93
20.20 19.82 20.40 20.93 21.25 21.52 22.38 22.05 21.89 22.68 22.96 25.23 25.24 24.91 24.80 24.51 24.76 24.02 24.29 26.62 25.70 26.15
21.33 20.27 20.18 19.83 21.20 21.46 20.80 20.83 21.20 21.07 21.77 21.35 23.64 24.17 22.96 22.92 22.72 22.20 21.48 23.43 25.15 24.56
22.19 21.34 19.94 20.90 21.45 21.83 21.44 20.39 21.60 20.74 20.57 21.63 20.97 23.19 22.59 21.33 20.97 19.29 20.32 20.49 21.88 22.57
22.08 21.16 21.03 21.34 21.77 22.02 21.01 20.46 20.52 20.38 20.91 20.14 20.86 21.31 21.70 20.82 19.11 18.41 17.96 18.22 18.72 20.12
MSLP
1021.22 1020.52 1019.50 1018.66 1017.79 1016.88 1015.84 1014.68 1013.63 1012.75 1012.07 1011.25 1010.52 1009.94 1009.62 1009.26 1009.18 1008.79 1008.24 1007.75 1007.39 1006.73
1021.49 1020.75 1019.92 1019.13 1018.27 1017.30 1016.34 1015.11 1013.97 1012.92 1011.86 1010.89 1010.03 1009.13 1008.71 1008.53 1008.38 1008.19 1007.75 1007.05 1006.80 1006.32
1021.92 1021.20 1020.43 1019.51 1018.64 1017.71 1016.60 1015.39 1014.22 1013.09 1011.96 1010.85 1009.82 1008.83 1007.42 1007.77 1007.64 1007.50 1007.14 1006.78 1006.43 1006.22
1022.55 1021.89 1020.94 1020.05 1019.17 1018.21 1017.07 1015.79 1014.61 1013.45 1012.40 1011.38 1010.36 1009.13 1008.04 1007.28 1007.07 1006.96 1006.81 1006.35 1006.05 1005.87
1023.32 1022.37 1021.61 1020.80 1019.98 1018.92 1017.72 1016.55 1015.34 1014.19 1013.14 1012.17 1011.15 1010.21 1009.37 1008.84 1008.53 1008.09 1007.83 1007.67 1007.28 1007.05
1023.97 1023.12 1022.44 1021.63 1020.72 1019.66 1018.56 1017.32 1016.25 1015.14 1014.10 1013.25 1012.42 1011.67 1011.02 1010.45 1009.93 1009.70 1009.58 1009.51 1008.84 1008.63
1024.54 1023.88 1023.16 1022.45 1021.53 1020.56 1019.51 1018.39 1017.34 1016.27 1015.35 1014.58 1013.93 1013.25 1012.67 1012.17 1011.73 1011.33 1011.15 1011.00 1010.53 1010.17
1025.28 1024.54 1023.75 1022.99 1022.34 1021.67 1020.61 1019.95 1018.94 1017.68 1016.64 1015.82 1015.19 1014.93 1014.39 1013.90 1013.51 1013.14 1012.60 1012.28 1012.12 1012.02
1025.94 1025.29 1024.67 1023.99 1023.32 1022.64 1021.95 1021.22 1020.42 1019.24 1018.49 1017.67 1017.26 1016.96 1016.20 1015.49 1014.93 1014.65 1014.27 1013.86 1013.74 1013.62
1026.68 1026.12 1025.66 1025.07 1024.39 1023.80 1023.12 1022.50 1021.69 1021.06 1020.22 1019.59 1019.33 1018.82 1018.25 1017.61 1016.77 1016.17 1016.03 1016.07 1015.59 1015.06
1027.19 1026.80 1026.46 1025.84 1025.48 1025.16 1024.66 1024.13 1023.60 1022.96 1022.35 1021.52 1021.06 1020.62 1020.10 1019.52 1018.95 1018.69 1018.23 1017.60 1016.98 1016.28
1027.60 1027.31 1026.97 1026.55 1026.27 1026.04 1025.70 1025.31 1024.89 1024.55 1023.82 1023.26 1022.50 1021.91 1021.39 1020.69 1020.41 1020.13 1019.93 1019.48 1018.88 1018.36
1027.97 1027.61 1027.43 1027.20 1026.87 1026.72 1026.34 1026.09 1025.77 1025.28 1025.02 1024.50 1023.92 1023.13 1022.51 1022.07 1021.60 1021.18 1020.80 1020.72 1020.45 1019.93
1028.44 1028.17 1027.99 1027.72 1027.48 1027.26 1026.96 1026.53 1026.16 1025.73 1025.70 1025.46 1025.04 1024.45 1023.80 1023.41 1022.98 1022.87 1022.54 1022.19 1021.93 1021.70
Wind_Speed
15 11 10 12 11 10 10 11 15 13 13 13 13 13 13 10 9 13 12 15 10 9
14 15 13 14 13 10 11 10 13 14 13 12 13 11 12 9 10 10 13 10 8 8
14 15 14 13 15 16 15 13 12 13 13 12 11 13 9 10 10 10 7 8 13 11
14 14 14 14 14 15 15 13 13 13 14 13 13 12 11 7 8 10 10 9 9 11
13 15 15 16 16 15 15 15 16 14 15 14 14 15 15 15 14 15 15 14 15 15
13 14 14 16 16 17 16 16 16 16 17 17 17 16 16 16 16 17 16 17 16 17
13 13 13 14 16 17 18 18 17 18 17 19 19 18 18 17 17 17 17 17 19 18
12 13 13 15 17 16 17 18 18 19 21 20 20 17 18 17 18 17 17 18 17 19
12 12 13 14 16 17 18 18 18 20 21 21 15 31 32 23 17 19 19 17 17 16
10 11 12 14 15 16 17 17 19 19 20 21 19 30 29 28 17 18 19 19 16 15
10 11 11 12 13 13 13 15 16 17 18 18 19 29 25 24 17 17 19 20 20 20
9 9 11 12 12 12 12 13 14 14 17 17 19 32 28 18 15 15 18 18 22 20
11 12 12 12 11 11 11 12 11 14 16 24 17 32 32 22 12 15 13 16 18 32
11 12 12 12 12 11 12 13 13 15 15 17 22 22 31 31 15 12 12 13 13 14
Wind_Direction
343 336 327 333 331 323 322 316 315 312 305 295 280 267 265 255 260 268 262 268 274 296
349 348 350 347 340 338 330 327 326 320 315 305 291 285 263 249 250 253 263 262 287 293
355 357 357 359 357 349 342 332 336 337 339 335 327 306 244 238 243 248 253 261 263 261
359 1 1 2 355 351 349 345 349 353 360 0 4 6 21 16 257 246 253 258 273 267
2 8 7 5 359 353 356 4 4 5 14 15 20 25 32 40 38 46 38 28 30 23
10 13 8 4 1 3 6 7 13 16 24 23 25 32 37 40 44 45 43 34 36 32
13 11 11 10 11 11 15 14 16 20 26 32 30 30 36 41 43 47 45 41 38 40
16 19 18 18 19 16 21 21 19 26 28 29 35 32 30 38 45 43 46 44 40 39
21 21 22 22 23 21 23 24 24 28 31 32 32 35 36 37 38 41 38 40 39 35
27 29 25 29 28 25 24 23 26 27 30 35 33 33 38 38 37 37 39 36 38 38
29 32 28 34 34 33 33 33 31 30 28 36 34 34 35 41 44 43 39 36 32 35
47 41 31 36 37 38 40 40 41 36 34 31 36 35 34 35 40 45 43 37 39 37
53 50 45 40 42 42 46 48 46 47 40 36 31 36 36 35 36 40 38 38 36 38
53 57 50 49 46 45 49 49 43 44 41 37 36 32 37 38 36 37 36 36 30 32